Weather History for New Philadelphia, OH

Change the Weather History Date:

Friday, March 15, 2013

  Actual Average Record
Temperature  
Mean Temperature 38 °F 39 °F  
Max Temperature 51 °F 50 °F 82 °F (1990)
Min Temperature 24 °F 28 °F -2 °F (1993)
Degree Days  
Heating Degree Days 27 26  
Month to date heating degree days 428 421  
Since 1 July heating degree days 4558 4628  
Cooling Degree Days 0 0  
Month to date cooling degree days 0 0  
Year to date cooling degree days 0 0  
Moisture  
Dew Point 28 °F    
Average Humidity 64    
Maximum Humidity 82    
Minimum Humidity 46    
Precipitation  
Precipitation 0.03 in 0.11 in 1.18 in (2007)
Month to date precipitation 0.68 1.38  
Year to date precipitation 3.84 6.34  
Sea Level Pressure  
Sea Level Pressure 29.98 in    
Wind  
Wind Speed 5 mph (WSW)    
Max Wind Speed 12 mph    
Max Gust Speed 17 mph    
Visibility 10 miles    
Events Rain    
T = Trace of Precipitation, MM = Missing Value Source: NWS Daily Summary

Daily Weather History Graph

Daily Weather History Graph

Search for Another Location

Airport:

Trip Planner

Search our weather history database for the weather conditions in past years. The results will help you decide how hot, cold, wet, or windy it might be!

Date:

Astronomy

Mar. 15, 2013 Rise Set
Actual Time 7:36 AM EDT 7:32 PM EDT
Civil Twilight 7:09 AM EDT 7:59 PM EDT
Nautical Twilight 6:38 AM EDT 8:31 PM EDT
Astronomical Twilight 6:06 AM EDT 9:03 PM EDT
Moon 9:25 AM EDT (3/15) 11:46 PM EDT (3/15)
Length of Visible Light 12h 50m
Length of Day
11h 55m
Waxing Crescent, 15% of the Moon is Illuminated
Mar 15
Waxing Crescent
Mar 19
First Quarter
Mar 27
Full
Apr 3
Last Quarter
Apr 10
New

Hourly Weather History & Observations

Time (EDT) Temp. Windchill Dew Point Humidity Pressure Visibility Wind Dir Wind Speed Gust Speed Precip Events Conditions
12:53 AM 26.1 °F - 19.9 °F 78% 30.16 in 10.0 mi Calm Calm - N/A   Clear
1:53 AM 25.0 °F - 19.9 °F 81% 30.15 in 10.0 mi Calm Calm - N/A   Clear
2:53 AM 26.1 °F 21.9 °F 21.0 °F 81% 30.14 in 10.0 mi ESE 3.5 mph - N/A   Clear
3:53 AM 25.0 °F - 19.9 °F 81% 30.11 in 10.0 mi Calm Calm - N/A   Clear
4:53 AM 26.1 °F - 21.0 °F 81% 30.09 in 10.0 mi Calm Calm - N/A   Clear
5:53 AM 28.9 °F - 23.0 °F 78% 30.08 in 10.0 mi Calm Calm - N/A   Overcast
6:53 AM 32.0 °F 25.6 °F 19.9 °F 61% 30.06 in 10.0 mi SW 6.9 mph - N/A   Overcast
7:33 AM 32.0 °F 26.4 °F 19.4 °F 60% 30.02 in 10.0 mi SW 5.8 mph - N/A   Overcast
7:53 AM 32.0 °F 27.5 °F 21.0 °F 64% 30.04 in 10.0 mi SW 4.6 mph - N/A   Mostly Cloudy
8:28 AM 33.8 °F 29.6 °F 21.2 °F 60% 30.01 in 10.0 mi SW 4.6 mph - N/A   Scattered Clouds
8:53 AM 34.0 °F 26.6 °F 23.0 °F 64% 30.03 in 10.0 mi SW 9.2 mph - N/A   Scattered Clouds
9:53 AM 35.1 °F 30.1 °F 25.0 °F 67% 30.02 in 10.0 mi WSW 5.8 mph - N/A   Mostly Cloudy
10:53 AM 37.9 °F 32.7 °F 26.1 °F 62% 30.02 in 10.0 mi SW 6.9 mph - N/A   Mostly Cloudy
11:53 AM 41.0 °F 35.2 °F 28.0 °F 60% 29.99 in 10.0 mi West 9.2 mph - N/A   Mostly Cloudy
12:53 PM 44.1 °F 39.0 °F 28.9 °F 55% 29.96 in 10.0 mi WSW 9.2 mph - N/A   Partly Cloudy
1:53 PM 46.9 °F - 30.0 °F 52% 29.93 in 10.0 mi SW 10.4 mph - N/A   Clear
2:53 PM 48.9 °F - 30.9 °F 50% 29.89 in 10.0 mi West 8.1 mph - N/A   Clear
3:53 PM 50.0 °F - 30.9 °F 48% 29.87 in 10.0 mi West 11.5 mph 17.3 mph N/A   Partly Cloudy
4:53 PM 50.0 °F - 32.0 °F 50% 29.86 in 10.0 mi West 6.9 mph - N/A   Partly Cloudy
5:53 PM 50.0 °F - 32.0 °F 50% 29.87 in 10.0 mi WNW 8.1 mph - N/A   Scattered Clouds
6:53 PM 48.9 °F - 32.0 °F 52% 29.87 in 10.0 mi West 5.8 mph - N/A   Mostly Cloudy
7:53 PM 46.9 °F - 33.1 °F 59% 29.89 in 10.0 mi WNW 4.6 mph - N/A   Overcast
8:53 PM 46.0 °F 44.8 °F 33.1 °F 61% 29.89 in 10.0 mi West 3.5 mph - N/A   Overcast
9:53 PM 46.0 °F - 34.0 °F 63% 29.89 in 10.0 mi Calm Calm - 0.00 in   Overcast
10:53 PM 43.0 °F - 37.0 °F 80% 29.88 in 8.0 mi Calm Calm - 0.00 in Rain Light Rain
11:05 PM 42.8 °F - 37.4 °F 81% 29.87 in 8.0 mi Calm Calm - 0.00 in Rain Light Rain
11:30 PM 42.8 °F - 37.4 °F 81% 29.86 in 6.0 mi Calm Calm - 0.01 in Rain Light Rain
11:53 PM 42.1 °F - 37.9 °F 85% 29.87 in 5.0 mi Calm Calm - 0.01 in Rain Light Rain